Weather History for Dansville, NY

Change the Weather History Date:

Thursday, January 31, 2013

  Actual Average Record
Temperature  
Mean Temperature 38 °F -  
Max Temperature 55 °F 33 °F 57 °F (2012)
Min Temperature 21 °F 17 °F -6 °F (1971)
Degree Days  
Heating Degree Days 27    
Moisture  
Dew Point 22 °F    
Average Humidity 75    
Maximum Humidity 93    
Minimum Humidity 56    
Precipitation  
Precipitation 0.37 in - - ()
Sea Level Pressure  
Sea Level Pressure 29.51 in    
Wind  
Wind Speed 8 mph (WNW)    
Max Wind Speed 18 mph    
Max Gust Speed 34 mph    
Visibility 4 miles    
Events Fog , Rain , Snow    
Averages and records for this station are not official NWS values.
T = Trace of Precipitation, MM = Missing Value Source: NWS Daily Summary

Daily Weather History Graph

Daily Weather History Graph

Search for Another Location

Airport:

Trip Planner

Search our weather history database for the weather conditions in past years. The results will help you decide how hot, cold, wet, or windy it might be!

Date:

Astronomy

Jan. 31, 2013 Rise Set
Actual Time 7:25 AM EST 5:23 PM EST
Civil Twilight 6:55 AM EST 5:53 PM EST
Nautical Twilight 6:21 AM EST 6:27 PM EST
Astronomical Twilight 5:48 AM EST 7:00 PM EST
Moon 10:31 PM EST (1/31) 9:16 AM EST (1/31)
Length of Visible Light 10h 57m
Length of Day
9h 57m
Waning Gibbous, 80% of the Moon is Illuminated
Jan 31
Waning Gibbous
Feb 3
Last Quarter
Feb 10
New
Feb 17
First Quarter
Feb 25
Full

Hourly Weather History & Observations

Time (EST) Temp. Windchill Dew Point Humidity Pressure Visibility Wind Dir Wind Speed Gust Speed Precip Events Conditions
12:46 AM 55.4 °F - 51.8 °F 88% 29.07 in 2.5 mi Calm Calm - 0.07 in Rain Rain
12:54 AM 54.0 °F - 52.0 °F 93% 29.10 in 2.5 mi Calm Calm - 0.10 in Rain Rain
1:00 AM 55.4 °F - 51.8 °F 88% 29.07 in 5.0 mi SW 8.1 mph - 0.01 in Rain Rain
1:20 AM 55.4 °F - 48.2 °F 77% 29.08 in 7.0 mi SW 10.4 mph 19.6 mph 0.05 in Rain Light Rain
1:54 AM 45.0 °F 40.1 °F 39.9 °F 82% 29.14 in 10.0 mi WNW 9.2 mph 25.3 mph 0.09 in Rain Light Rain
2:54 AM 41.0 °F 36.4 °F 35.1 °F 79% 29.16 in 10.0 mi Variable 6.9 mph 19.6 mph 0.14 in Rain Light Rain
3:54 AM 41.0 °F 37.1 °F 33.1 °F 73% 29.16 in 10.0 mi Variable 5.8 mph - 0.00 in   Overcast
4:54 AM 37.9 °F 28.5 °F 28.0 °F 68% 29.22 in 10.0 mi West 17.3 mph 34.5 mph 0.00 in   Mostly Cloudy
5:22 AM 35.6 °F 27.5 °F 28.4 °F 75% 29.21 in 4.0 mi West 11.5 mph 32.2 mph 0.01 in Snow Light Snow
5:36 AM 35.6 °F 25.2 °F 26.6 °F 70% 29.22 in 9.0 mi West 18.4 mph 28.8 mph 0.01 in Snow Light Snow
5:54 AM 36.0 °F 28.5 °F 25.0 °F 64% 29.26 in 10.0 mi West 10.4 mph 33.4 mph 0.01 in   Overcast
7:54 AM 32.0 °F 23.0 °F 19.9 °F 61% 29.37 in 5.0 mi West 11.5 mph 27.6 mph 0.00 in Snow Light Snow
8:54 AM 32.0 °F 26.4 °F 21.0 °F 64% 29.41 in 8.0 mi Variable 5.8 mph - 0.00 in Snow Light Snow
9:54 AM 30.9 °F 20.7 °F 21.0 °F 67% 29.45 in 7.0 mi WNW 13.8 mph 24.2 mph 0.00 in Snow Light Snow
10:35 AM 30.2 °F 18.5 °F 21.2 °F 69% 29.43 in 2.5 mi WNW 17.3 mph 29.9 mph 0.00 in Snow Light Snow
10:43 AM 30.2 °F 22.6 °F 21.2 °F 69% 29.43 in 1.0 mi West 8.1 mph 29.9 mph 0.00 in Snow Light Snow
10:51 AM 30.2 °F 21.9 °F 21.2 °F 69% 29.43 in 3.0 mi West 9.2 mph 27.6 mph 0.00 in Snow Light Snow
10:54 AM 30.0 °F 19.5 °F 19.9 °F 66% 29.47 in 7.0 mi WNW 13.8 mph 27.6 mph 0.00 in Snow Light Snow
11:15 AM 30.2 °F 21.3 °F 19.4 °F 64% 29.44 in 8.0 mi West 10.4 mph 21.9 mph 0.00 in Snow Light Snow
11:54 AM 32.0 °F 22.5 °F 18.0 °F 56% 29.50 in 10.0 mi West 12.7 mph 25.3 mph 0.00 in   Overcast
12:47 PM 28.4 °F 19.1 °F 19.4 °F 69% 29.48 in 2.0 mi West 10.4 mph 19.6 mph 0.00 in Snow Light Snow
12:54 PM 28.9 °F 19.2 °F 21.0 °F 72% 29.52 in 1.0 mi West 11.5 mph 17.3 mph 0.00 in Snow Light Snow
1:03 PM 26.6 °F 16.2 °F 21.2 °F 80% 29.50 in 0.2 mi West 11.5 mph 18.4 mph 0.00 in Snow Heavy Snow
1:16 PM 26.6 °F 15.2 °F 23.0 °F 86% 29.50 in 0.5 mi WNW 13.8 mph 20.7 mph 0.01 in Fog , Snow Snow
1:25 PM 26.6 °F 17.5 °F 23.0 °F 86% 29.50 in 0.2 mi West 9.2 mph 20.7 mph 0.01 in Fog , Snow Snow
1:29 PM 26.6 °F 17.5 °F 21.2 °F 80% 29.50 in 0.5 mi West 9.2 mph 19.6 mph 0.01 in Snow Snow
1:36 PM 28.4 °F 18.5 °F 19.4 °F 69% 29.51 in 2.5 mi West 11.5 mph 26.5 mph 0.01 in Snow Light Snow
1:43 PM 28.4 °F 18.5 °F 19.4 °F 69% 29.51 in 7.0 mi WNW 11.5 mph 26.5 mph 0.01 in Snow Light Snow
1:51 PM 28.4 °F 20.4 °F 17.6 °F 64% 29.51 in 9.0 mi West 8.1 mph 20.7 mph 0.01 in   Overcast
1:54 PM 28.9 °F 21.1 °F 17.1 °F 61% 29.56 in 9.0 mi West 8.1 mph 20.7 mph 0.01 in   Overcast
2:54 PM 28.0 °F 19.3 °F 19.0 °F 69% 29.59 in 3.0 mi West 9.2 mph - 0.00 in Snow Light Snow
3:05 PM 28.4 °F 21.2 °F 19.4 °F 69% 29.55 in 3.0 mi NW 6.9 mph 16.1 mph 0.00 in Snow Light Snow
3:15 PM 28.4 °F 18.0 °F 19.4 °F 69% 29.55 in 2.5 mi NW 12.7 mph 19.6 mph 0.00 in Snow Light Snow
3:30 PM 26.6 °F 18.2 °F 21.2 °F 80% 29.56 in 3.0 mi NNW 8.1 mph - 0.00 in Snow Light Snow
3:54 PM 27.0 °F 15.6 °F 19.0 °F 72% 29.61 in 4.0 mi West 13.8 mph 29.9 mph 0.00 in Snow Light Snow
4:00 PM 26.6 °F 16.2 °F 17.6 °F 69% 29.57 in 2.5 mi West 11.5 mph 29.9 mph 0.00 in Snow Light Snow
4:03 PM 26.6 °F 15.7 °F 19.4 °F 74% 29.57 in 0.8 mi West 12.7 mph 26.5 mph 0.00 in Snow Light Snow
4:07 PM 26.6 °F 15.2 °F 21.2 °F 80% 29.57 in 0.2 mi WNW 13.8 mph 26.5 mph 0.00 in Snow Heavy Snow
4:17 PM 26.6 °F 19.1 °F 21.2 °F 80% 29.58 in 0.5 mi West 6.9 mph - 0.00 in Snow Snow
4:24 PM 26.6 °F 20.0 °F 21.2 °F 80% 29.58 in 1.0 mi Variable 5.8 mph - 0.00 in Snow Light Snow
4:36 PM 26.6 °F 21.2 °F 21.2 °F 80% 29.59 in 0.8 mi Variable 4.6 mph - 0.01 in Snow Light Snow
4:38 PM 26.6 °F 20.0 °F 21.2 °F 80% 29.59 in 1.0 mi Variable 5.8 mph - 0.01 in Snow Light Snow
4:49 PM 26.6 °F 17.5 °F 19.4 °F 74% 29.60 in 0.8 mi West 9.2 mph - 0.01 in Snow Light Snow
4:54 PM 25.0 °F 16.3 °F 19.9 °F 81% 29.64 in 0.5 mi West 8.1 mph - 0.01 in Snow Snow
5:17 PM 26.6 °F 17.5 °F 17.6 °F 69% 29.61 in 3.0 mi WSW 9.2 mph 20.7 mph 0.00 in Snow Light Snow
5:39 PM 26.6 °F 16.8 °F 15.8 °F 64% 29.62 in 8.0 mi WSW 10.4 mph 23.0 mph 0.00 in Snow Light Snow
5:54 PM 26.1 °F 16.2 °F 14.0 °F 60% 29.68 in 10.0 mi West 10.4 mph 26.5 mph 0.00 in   Overcast
6:54 PM 25.0 °F 20.7 °F 14.0 °F 63% 29.71 in 10.0 mi Variable 3.5 mph 21.9 mph 0.00 in   Overcast
7:54 PM 24.1 °F 18.2 °F 14.0 °F 65% 29.72 in 8.0 mi Variable 4.6 mph - 0.00 in Snow Light Snow
8:50 PM 24.8 °F - 15.8 °F 69% 29.68 in 4.0 mi Calm Calm - 0.00 in Snow Light Snow
8:54 PM 24.1 °F 16.0 °F 16.0 °F 71% 29.73 in 4.0 mi Variable 6.9 mph - 0.00 in Snow Light Snow
9:04 PM 24.8 °F 16.1 °F 15.8 °F 69% 29.68 in 6.0 mi West 8.1 mph - 0.00 in Snow Light Snow
9:37 PM 24.8 °F 17.9 °F 15.8 °F 69% 29.69 in 2.5 mi WNW 5.8 mph - 0.00 in Snow Light Snow
9:46 PM 23.0 °F 18.4 °F 17.6 °F 80% 29.69 in 1.2 mi NW 3.5 mph - 0.00 in Snow Light Snow
10:04 PM 21.2 °F 14.9 °F 19.4 °F 93% 29.69 in 0.8 mi NNW 4.6 mph - 0.01 in Snow Light Snow
10:14 PM 21.2 °F - 19.4 °F 93% 29.69 in 1.0 mi Calm Calm - 0.01 in Snow Light Snow
10:34 PM 21.2 °F - 19.4 °F 93% 29.69 in 2.0 mi Calm Calm - 0.01 in Snow Light Snow
10:49 PM 21.2 °F 14.9 °F 17.6 °F 86% 29.70 in 1.5 mi Variable 4.6 mph - 0.01 in Snow Light Snow
11:01 PM 23.0 °F 13.9 °F 17.6 °F 80% 29.70 in 5.0 mi NW 8.1 mph - 0.00 in Snow Light Snow
11:11 PM 21.2 °F 10.1 °F 17.6 °F 86% 29.70 in 1.8 mi NNW 10.4 mph - 0.00 in Snow Light Snow
11:19 PM 21.2 °F 10.9 °F 19.4 °F 93% 29.70 in 0.8 mi NW 9.2 mph - 0.00 in Snow Light Snow
11:33 PM 21.2 °F 11.7 °F 17.6 °F 86% 29.70 in 1.2 mi NW 8.1 mph - 0.01 in Snow Light Snow
11:54 PM 21.9 °F 12.5 °F 18.0 °F 85% 29.76 in 3.0 mi NNW 8.1 mph - 0.01 in Snow Light Snow